www.pogodaiklimat.ru

Погода и климат >> Архив погоды >> Мексика >> Sombrerete


ПОГОДА в Sombrerete

  • Прогноз погоды в Sombrerete
  • Монитор погоды в Sombrerete
  • Климат города

АРХИВ ПОГОДЫ в Sombrerete

Время (UTC), дата Ветер
(напр.,м/с)
 
Видим.   Явления Облачность Т
(С)
Тd
(С)
f
(%)
Тe
(С)
Тes
(С)
Комфортность P
(гПа)
Po
(гПа)
Тmin
(С)
Tmax
(С)
R
(мм)
R24
(мм)
S
(см)
15 13.09 В 1 15 км 10/1 900 м
[St As op]
+16.0 +12.2 78 +17 +18 1009.6 770.2
18 13.09 В 1 15 км {морось} 9/9 1000 м
[Sc diur, vesp]
+19.6 +13.0 66 +22 +24 комфорт 1009.3 770.3 0.0
21 13.09 В 2 15 км слабая морось 9/4 700 м
[Cu med, cong As op]
+20.4 +15.1 72 +24 +27 комфорт 1006.2 768.8 0.0
00 14.09 СЗ 1 15 км в посл. час морось 9/9 600 м
[Sc]
+17.1 +14.0 82 +18 +18 1004.2 768.0 0.1
03 14.09 СВ 2 15 км слабая морось 9/4 630 м
[Frnb As op]
+16.0 +14.5 91 +16 +16 1006.0 769.7 0.0
06 14.09 В 1 16 км слабая морось 9/3 600 м
[Cu hum As op]
+15.2 +14.3 94 +16 +16 1007.5 770.4 0.3
12 14.09 штиль 0 15 км 6/0 1500 м
[As op]
+13.6 +12.7 94 +13 +13 1008.4 769.3 +13.0 +22.8 0.2
15 14.09 В 2 16 км 5/5 900 м
[St]
+15.0 +11.9 82 +15 +17 1010.0 770.1
18 14.09 В 2 16 км 8/8 900 м
[Sc diur, vesp]
+21.2 +11.8 55 +23 +27 комфорт 1008.9 769.9 +12.8 +21.2
21 14.09 В 2 16 км 6/4 1410 м
[Cu med, cong Ac trans]
+24.6 +11.7 44 +26 +33 жарко 1005.1 768.4
00 15.09 В 2 16 км 4/4 1000 м
[Cu hum]
+23.2 +10.7 45 +25 +26 комфорт 1001.5 767.3 +12.8 +25.3
12 15.09 штиль 0 16 км 3/0 1500 м
[Ac trans]
+13.8 +12.3 91 +13 +13 1007.1 769.9 +13.2 +25.3
15 15.09 штиль 0 16 км 3/3 1050 м
[Cu hum]
+17.6 +12.1 70 +18 +23 1009.9 770.9
18 15.09 С 1 16 км 8/8 1050 м
[Cu med, cong]
+22.0 +9.9 46 +24 +28 комфорт 1008.7 770.3 +13.0 +22.0
21 15.09 С 1 16 км 8/8 1000 м
[Cb calv]
+22.2 +5.4 34 +23 +26 комфорт 1005.0 768.6
00 16.09 С 3 16 км 4/4 1000 м
[Cb cap Ac trans]
+21.6 +2.5 28 +21 +22 комфорт 1001.7 767.5 +13.0 +24.6
12 16.09 штиль 0 16 км 4/4 600 м
[Cu hum]
+13.4 +11.2 87 +13 +13 1008.0 769.3 +12.8 +24.6
15 16.09 СВ 1 16 км 6/1 630 м
[Cu hum Ac und]
+17.8 +13.0 73 +19 +22 1009.7 770.1
18 16.09 В 3 16 км 9/9 800 м
[Cu hum]
+20.4 +11.2 55 +22 +24 комфорт 1009.1 770.2 +12.4 +21.2
21 16.09 С 2 16 км 9/9 800 м
[Sc diur, vesp]
+20.8 +11.4 55 +23 +25 комфорт 1005.0 768.3
00 17.09 штиль 0 16 км 8/8 600 м
[Sc diur, vesp]
+18.2 +12.1 68 +18 +19 1003.4 768.0 +12.4 +24.2
12 17.09 штиль 0 16 км в посл. час дождь 5/0
[Ac lent]
+12.4 +10.8 90 +12 +12 1008.7 769.3 +11.8 2
15 17.09 штиль 0 16 км 9/0 2000 м
[Ac und]
+15.4 +12.7 84 +15 +18 1011.3 770.6
18 17.09 З 1 16 км 6/4 1140 м
[Cu med, cong Ac trans]
+23.0 +12.6 52 +26 +36 жарко 1010.2 770.5 +11.8 +23.0
21 17.09 Ю 1 16 км 6/6 1110 м
[Sc diur, vesp]
+25.0 +11.9 44 +27 +33 жарко 1004.9 768.2
00 18.09 В 3 16 км слабая морось 9/9 600 м
[Frnb]
+16.6 +13.9 84 +16 +16 1004.4 769.0 3
03 18.09 штиль 0 16 км в посл. час морось 10/10 750 м
[Frnb]
+15.8 +14.6 93 +16 +16 1005.7 770.3 0.6
06 18.09 В 2 14 км 9/8 480 м
[Cu hum As trans]
+14.8 +14.1 96 +14 +14 1008.1 771.3 +25.9 0.6
12 18.09 штиль 0 14 км 8/0 1500 м
[As op]
+12.8 +11.6 92 +12 +12 1010.5 770.5 +12.2 +25.9 0.2
15 18.09 штиль 0 16 км 6/0 1500 м
[As trans Ci fib]
+16.2 +13.7 85 +16 +21 1011.8 771.3
18 18.09 штиль 0 16 км 9/5 1050 м
[Cu med, cong Ac trans]
+22.4 +11.2 49 +25 +31 комфорт 1009.8 770.9 +12.2 +22.4
21 18.09 Ю 2 15 км осадки на расстоянии 9/4 660 м
[Cb calv As op]
+19.0 +13.7 71 +21 +23 комфорт 1006.3 769.2
00 19.09 штиль 0 16 км {дождь} 9/1 300 м
[Cu hum As op]
+15.2 +13.1 87 +15 +15 1005.3 768.9 2
03 19.09 штиль 0 16 км слабая морось 10/0 2000 м
[As op]
+14.4 +14.1 98 +14 +14 1007.3 770.5 1
06 19.09 ЮВ 1 13 км в посл. час морось 9/9 300 м
[Frnb]
+13.6 +13.0 96 +14 +14 1009.5 770.8 1
12 19.09 штиль 0 16 км 3/0 1500 м
[As op]
+13.6 +12.8 95 +13 +13 1010.5 769.9 +12.8 +24.0 0.3
15 19.09 штиль 0 16 км {туман} 6/0 1500 м
[Ac und]
+16.3 +14.1 87 +16 +20 1010.9 770.2
18 19.09 штиль 0 16 км 10/4 1200 м
[Cu med, cong Ac und]
+21.2 +8.1 43 +22 +27 комфорт 1009.9 770.4 +12.0 +21.2
21 19.09 В 1 15 км дождь 9/9 660 м
[Frnb]
+18.8 +14.1 74 +21 +22 комфорт 1006.2 768.7 0.0
00 20.09 В 1 16 км слабая морось {ливн. осадки} 9/9 300 м
[Cu Sc]
+14.8 +13.6 93 +15 +15 1005.9 768.6 26
03 20.09 Ю 1 14 км в посл. час морось 9/6 480 м
[Sc diur, vesp As op]
+14.6 +14.0 96 +15 +15 1008.1 770.3 0.3
06 20.09 штиль 0 16 км в посл. час морось 6/1 300 м
[Cu hum Ac trans]
+13.1 +12.8 98 +13 +13 1010.0 770.8 1
12 20.09 штиль 0 16 км 3/0
[Ac lent]
+11.2 +9.9 92 +10 +10 1011.7 770.4 +10.4

 

Местоположение метеостанции Sombrerete (Мексика): широта 23.63 долгота -103.60 высота над уровнем моря 2351 м.

В архиве по умолчанию представлена погода в Sombrerete за последнюю неделю. Архивные данные за месяц целиком и за предыдущие месяцы, начиная с января 2011 года, Вы можете получить, выбрав интересующий диапазон дат из раскрывающегося списка и нажав кнопку "Ввод!".


*Определитесь, кто Вы:
робот инопланетянин человек

Внимание! Время в таблицах - всемирное. Для получения местного времени необходимо прибавить поправку, которая в Sombrerete равна -6 ч.

Смотрите также архив погоды в соседних городах и на ближайших метеорологических станциях:

Погода в Durango (Мексика) (112 км)
Погода в Huejucar (Мексика) (141 км)
Погода в Zacatecas (Мексика) (147 км)
Погода в Colotlan (Мексика) (174 км)
Погода в Torreon (Мексика) (212 км)
Погода в Aguascalientes (Мексика) (237 км)
Погода в Tepic (Мексика) (265 км)
Погода в Tepehuanes (Мексика) (287 км)
Погода в Mazatlan (Мексика) (290 км)
Погода в Lagos De Moreno (Мексика) (307 км)

Пояснения к столбцам:

Ветер - указаны скорость ветра в м/с - средняя за 10 мин, порывы в срок и между сроками (в фигурных скобках) и направление, откуда дует ветер: С - северный, СВ - северо-восточный, В - восточный, ЮВ - юго-восточный, Ю - южный, ЮЗ - юго-западный, З - западный, СЗ - северо-западный.
Видимость - горизонтальная дальность видимости в метрах или километрах. При видимости от 1 до 10 км при отсутствии осадков обычно наблюдается дымка, при ухудшении видимости до 1 км и менее - туман. В сухую погоду видимость может ухудшаться дымом, пылью или мглою.
Явления - указаны атмосферные явления, наблюдавшиеся в срок или в последний час перед сроком; фигурными скобками обозначены явления, наблюдавшиеся между сроками (за 1-3 часа до срока); квадратными скобками обозначены град или гололедные отложения с указанием их диаметра в мм.
Облачность - указаны через наклонную черту общая и нижняя облачность в баллах и высота нижней границы облаков в метрах; квадратными скобками обозначены формы облаков: Ci - перистые, Cs - перисто-слоистые, Cc - перисто-кучевые, Ac - высококучевые, As - высокослоистые, Sc - слоисто-кучевые, Ns - слоисто-дождевые, Cu - кучевые, Cb - кучево-дождевые. Подробнее классификацию облаков см. в Атласе облаков (PDF).
T - Температура воздуха - температура, измеренная на высоте 2 м над землей.
Td - Температура точки росы - температура, при понижении до которой содержащийся в воздухе водяной пар достигнет насыщения.
f - Относительная влажность воздуха - влажноcть воздуха, измеренная на высоте 2 м над землей.
Te - Эффективная температура - температура, которую ощущает одетый по сезону человек в тени. Характеристика душности погоды. При расчете учитывается влияние влажности воздуха и скорости ветра на теплоощущения человека.
Tes - Эффективная температура на солнце - температура, которую ощущает человек, с поправкой на солнечный нагрев. Характеристика знойности погоды. Зависит от высоты солнца над горизонтом, облачности и скорости ветра. Ночью, в пасмурную погоду, а также при ветре 12 м/с и более поправка равна нулю.
P - Атмосферное давление - приведенное к уровню моря атмосферное давление.
Po - Атмосферное давление - измеренное на уровне метеостанции атмосферное давление.
Tmin - Минимальная температура - минимум температуры воздуха на высоте 2 м над землей.
Tmax - Максимальная температура - максимум температуры воздуха на высоте 2 м над землей.
R - Количество осадков - Количество выпавших осадков за период времени, мм. При наведении курсора мыши на число - период времени, за который выпало указанное количество осадков.
R24 - Количество осадков - Количество выпавших осадков за 24 часа, мм.
S - Снежный покров - Высота снежного покрова, см. При наведении курсора мыши на число - состояние снежного покрова и степень покрытия местности в баллах.